| time (UTC) | temp F | wind direction | speed MPH | gust MPH | rain 1hr in | rain 24hr in | rain mn in | humidity % | barometer mb |
| 20260508041804 | 35 | 281 | 3.0 | 6.0 | 0.02 | 0.23 | 0.02 | 94 | 1019.7 |
| 20260508040904 | 34 | 298 | 4.0 | 7.0 | 0.02 | 0.23 | 0.02 | 94 | 1019.3 |
| 20260508040004 | 34 | 301 | 3.0 | 7.0 | 0.00 | 0.20 | 0.00 | 94 | 1018.5 |
| 20260508035404 | 33 | 305 | 4.0 | 6.0 | 0.00 | 0.20 | 0.00 | 94 | 1017.1 |
| 20260508034504 | 33 | 302 | 3.0 | 7.0 | 0.00 | 0.20 | 0.00 | 94 | 1020.1 |
| 20260508033604 | 33 | 292 | 3.0 | 5.0 | 0.00 | 0.20 | 0.00 | 94 | 1019.6 |
| 20260508032725 | 32 | 283 | 4.0 | 7.0 | 0.00 | 0.20 | 0.00 | 94 | 1019.4 |
| 20260508031825 | 32 | 289 | 3.0 | 6.0 | 0.00 | 0.20 | 0.00 | 94 | 1019.4 |
| 20260508030904 | 32 | 295 | 3.0 | 7.0 | 0.00 | 0.20 | 0.00 | 94 | 1019.3 |
| 20260508030004 | 32 | 299 | 3.0 | 8.0 | 0.00 | 0.20 | 0.00 | 94 | 1019.3 |
| 20260508025404 | 31 | 289 | 3.0 | 5.0 | 0.00 | 0.20 | 0.00 | 94 | 1019.3 |
| 20260508024525 | 31 | 282 | 3.0 | 6.0 | 0.00 | 0.20 | 0.00 | 94 | 1019.2 |
| 20260508023604 | 31 | 293 | 3.0 | 6.0 | 0.00 | 0.20 | 0.00 | 94 | 1019.0 |
| 20260508022704 | 30 | 301 | 2.0 | 4.0 | 0.00 | 0.20 | 0.00 | 94 | 1019.0 |
| 20260508021804 | 29 | 296 | 2.0 | 4.0 | 0.00 | 0.20 | 0.00 | 93 | 1018.9 |
| 20260508020904 | 29 | 296 | 1.0 | 2.0 | 0.00 | 0.20 | 0.00 | 93 | 1018.9 |
| 20260508020004 | 29 | 296 | 1.0 | 3.0 | 0.00 | 0.20 | 0.00 | 93 | 1018.7 |
| 20260508015404 | 30 | 296 | 1.0 | 3.0 | 0.00 | 0.20 | 0.00 | 93 | 1018.6 |
| 20260508014504 | 30 | 296 | 2.0 | 3.0 | 0.00 | 0.20 | 0.00 | 93 | 1018.6 |
| 20260508013625 | 31 | 296 | 2.0 | 4.0 | 0.00 | 0.20 | 0.00 | 93 | 1018.6 |
| 20260508012704 | 31 | 307 | 2.0 | 4.0 | 0.00 | 0.20 | 0.00 | 94 | 1018.5 |
| 20260508011804 | 31 | 307 | 3.0 | 4.0 | 0.00 | 0.20 | 0.00 | 94 | 1018.4 |
| 20260508010904 | 31 | 303 | 3.0 | 6.0 | 0.00 | 0.20 | 0.00 | 94 | 1018.3 |
| 20260508010025 | 32 | 304 | 3.0 | 7.0 | 0.00 | 0.20 | 0.00 | 94 | 1018.2 |
| 20260508005404 | 32 | 298 | 3.0 | 7.0 | 0.00 | 0.20 | 0.00 | 94 | 1018.2 |
| 20260508004525 | 32 | 290 | 3.0 | 7.0 | 0.00 | 0.20 | 0.00 | 94 | 1018.2 |
| 20260508003604 | 31 | 290 | 3.0 | 6.0 | 0.00 | 0.20 | 0.00 | 93 | 1018.0 |
| 20260508002704 | 31 | 302 | 3.0 | 6.0 | 0.00 | 0.20 | 0.00 | 94 | 1018.1 |
| 20260508001825 | 31 | 306 | 3.0 | 4.0 | 0.00 | 0.20 | 0.00 | 94 | 1018.0 |
| 20260508000925 | 32 | 307 | 3.0 | 5.0 | 0.00 | 0.20 | 0.00 | 93 | 1017.9 |
| 20260508000004 | 32 | 316 | 3.0 | 5.0 | 0.00 | 0.20 | 0.00 | 93 | 1017.8 |
| 20260507235404 | 32 | 319 | 3.0 | 5.0 | 0.00 | 0.20 | 0.00 | 93 | 1017.8 |
| 20260507234525 | 32 | 308 | 4.0 | 7.0 | 0.00 | 0.20 | 0.00 | 93 | 1017.7 |
| 20260507233625 | 32 | 304 | 4.0 | 8.0 | 0.00 | 0.20 | 0.00 | 93 | 1017.6 |
| 20260507232726 | 32 | 296 | 4.0 | 8.0 | 0.00 | 0.20 | 0.00 | 93 | 1017.5 |
| 20260507231825 | 32 | 296 | 4.0 | 7.0 | 0.00 | 0.20 | 0.00 | 94 | 1017.4 |
| 20260507230904 | 32 | 292 | 3.0 | 7.0 | 0.00 | 0.20 | 0.00 | 93 | 1017.4 |
| 20260507230004 | 31 | 286 | 3.0 | 4.0 | 0.00 | 0.20 | 0.00 | 93 | 1017.4 |
| 20260507225425 | 31 | 286 | 3.0 | 6.0 | 0.00 | 0.20 | 0.00 | 93 | 1017.3 |
| 20260507224504 | 32 | 283 | 3.0 | 4.0 | 0.00 | 0.20 | 0.00 | 93 | 1017.1 |
| 20260507223624 | 31 | 308 | 2.0 | 4.0 | 0.00 | 0.20 | 0.00 | 93 | 1017.0 |
| 20260507222704 | 32 | 308 | 3.0 | 4.0 | 0.00 | 0.20 | 0.00 | 93 | 1017.0 |
| 20260507221824 | 32 | 308 | 3.0 | 5.0 | 0.00 | 0.20 | 0.00 | 93 | 1016.9 |
| 20260507220904 | 31 | 313 | 3.0 | 4.0 | 0.00 | 0.20 | 0.00 | 93 | 1016.8 |
| 20260507220004 | 32 | 315 | 2.0 | 4.0 | 0.00 | 0.20 | 0.00 | 93 | 1016.6 |
| 20260507215425 | 32 | 315 | 3.0 | 4.0 | 0.00 | 0.20 | 0.00 | 93 | 1016.6 |
| 20260507214503 | 32 | 315 | 2.0 | 4.0 | 0.00 | 0.20 | 0.00 | 93 | 1016.5 |
| 20260507213625 | 33 | 315 | 3.0 | 4.0 | 0.00 | 0.20 | 0.00 | 93 | 1016.5 |
| 20260507212704 | 33 | 315 | 3.0 | 5.0 | 0.00 | 0.20 | 0.00 | 93 | 1016.4 |
| 20260507211804 | 33 | 316 | 1.0 | 5.0 | 0.00 | 0.20 | 0.00 | 93 | 1016.3 |
| 20260507210924 | 33 | 0 | 0.0 | 0.0 | 0.00 | 0.20 | 0.00 | 93 | 1016.2 |
| 20260507210006 | 33 | 0 | 0.0 | 0.0 | 0.01 | 0.20 | 0.00 | 93 | 1016.1 |
| 20260507205404 | 33 | 0 | 0.0 | 0.0 | 0.01 | 0.20 | 0.20 | 93 | 1016.1 |
| 20260507204504 | 33 | 300 | 1.0 | 2.0 | 0.03 | 0.20 | 0.20 | 93 | 1016.0 |
| 20260507203625 | 33 | 300 | 2.0 | 3.0 | 0.05 | 0.20 | 0.20 | 92 | 1016.0 |
| 20260507202703 | 33 | 300 | 2.0 | 3.0 | 0.07 | 0.20 | 0.20 | 92 | 1015.9 |
| 20260507201804 | 33 | 304 | 2.0 | 4.0 | 0.09 | 0.20 | 0.20 | 92 | 1015.8 |
| 20260507200904 | 33 | 334 | 1.0 | 3.0 | 0.10 | 0.20 | 0.20 | 92 | 1015.8 |
| 20260507200004 | 33 | 334 | 2.0 | 3.0 | 0.09 | 0.19 | 0.20 | 92 | 1015.7 |
| 20260507195403 | 33 | 334 | 3.0 | 5.0 | 0.10 | 0.19 | 0.19 | 92 | 1015.7 |
| 20260507194504 | 33 | 335 | 4.0 | 6.0 | 0.08 | 0.17 | 0.17 | 92 | 1015.7 |
| 20260507193603 | 33 | 334 | 5.0 | 9.0 | 0.06 | 0.15 | 0.15 | 92 | 1015.6 |
| 20260507192704 | 33 | 330 | 5.0 | 9.0 | 0.05 | 0.13 | 0.13 | 92 | 1015.5 |
| 20260507191803 | 34 | 327 | 5.0 | 8.0 | 0.03 | 0.11 | 0.11 | 92 | 1015.4 |
| 20260507190904 | 34 | 328 | 5.0 | 9.0 | 0.03 | 0.10 | 0.10 | 92 | 1015.4 |
| 20260507190025 | 34 | 333 | 7.0 | 10.0 | 0.04 | 0.10 | 0.10 | 92 | 1015.4 |
| 20260507185403 | 33 | 331 | 7.0 | 10.0 | 0.04 | 0.09 | 0.09 | 92 | 1015.3 |
| 20260507184504 | 33 | 332 | 7.0 | 11.0 | 0.06 | 0.09 | 0.09 | 92 | 1015.3 |
| 20260507183603 | 33 | 326 | 7.0 | 10.0 | 0.06 | 0.09 | 0.09 | 91 | 1015.2 |
| 20260507182703 | 33 | 322 | 6.0 | 10.0 | 0.05 | 0.08 | 0.08 | 91 | 1015.2 |
| 20260507181803 | 33 | 320 | 7.0 | 12.0 | 0.05 | 0.08 | 0.08 | 90 | 1015.1 |
| 20260507180903 | 33 | 319 | 8.0 | 11.0 | 0.05 | 0.07 | 0.07 | 90 | 1015.2 |
| 20260507180025 | 34 | 315 | 6.0 | 10.0 | 0.04 | 0.06 | 0.06 | 89 | 1015.2 |
| 20260507175404 | 34 | 308 | 5.0 | 10.0 | 0.03 | 0.05 | 0.05 | 89 | 1015.2 |
| 20260507174503 | 34 | 297 | 4.0 | 8.0 | 0.01 | 0.03 | 0.03 | 87 | 1015.1 |
| 20260507173604 | 36 | 276 | 3.0 | 9.0 | 0.01 | 0.03 | 0.03 | 84 | 1015.1 |
| 20260507172703 | 38 | 240 | 2.0 | 8.0 | 0.01 | 0.03 | 0.03 | 83 | 1015.0 |
| 20260507171825 | 40 | 213 | 3.0 | 9.0 | 0.01 | 0.03 | 0.03 | 81 | 1014.9 |
| 20260507170903 | 41 | 295 | 1.0 | 4.0 | 0.00 | 0.02 | 0.02 | 80 | 1014.6 |
| 20260507170004 | 41 | 359 | 2.0 | 4.0 | 0.00 | 0.02 | 0.02 | 79 | 1014.2 |
| 20260507165404 | 41 | 7 | 2.0 | 4.0 | 0.00 | 0.02 | 0.02 | 78 | 1014.0 |
| 20260507164504 | 42 | 18 | 2.0 | 7.0 | 0.00 | 0.02 | 0.02 | 76 | 1014.0 |
| 20260507163603 | 43 | 56 | 2.0 | 9.0 | 0.00 | 0.02 | 0.02 | 75 | 1013.8 |
| 20260507162704 | 43 | 54 | 2.0 | 7.0 | 0.00 | 0.02 | 0.02 | 73 | 1013.7 |
| 20260507161803 | 44 | 67 | 2.0 | 7.0 | 0.00 | 0.02 | 0.02 | 72 | 1013.5 |
| 20260507160904 | 44 | 15 | 1.0 | 4.0 | 0.00 | 0.02 | 0.02 | 70 | 1013.4 |
| 20260507160004 | 44 | 349 | 1.0 | 4.0 | 0.00 | 0.02 | 0.02 | 69 | 1013.4 |
| 20260507155404 | 44 | 353 | 1.0 | 5.0 | 0.00 | 0.02 | 0.02 | 69 | 1013.3 |
| 20260507154504 | 45 | 24 | 1.0 | 5.0 | 0.00 | 0.02 | 0.02 | 67 | 1013.4 |
| 20260507153604 | 45 | 61 | 1.0 | 3.0 | 0.00 | 0.02 | 0.02 | 66 | 1013.4 |
| 20260507152703 | 45 | 61 | 0.0 | 4.0 | 0.00 | 0.02 | 0.02 | 65 | 1013.3 |
| 20260507151803 | 45 | 61 | 1.0 | 4.0 | 0.00 | 0.02 | 0.02 | 63 | 1013.4 |
| 20260507150925 | 46 | 88 | 2.0 | 4.0 | 0.00 | 0.02 | 0.02 | 63 | 1013.5 |
| 20260507150004 | 46 | 88 | 2.0 | 7.0 | 0.00 | 0.02 | 0.02 | 64 | 1013.5 |
| 20260507145404 | 46 | 132 | 2.0 | 5.0 | 0.00 | 0.02 | 0.02 | 66 | 1013.5 |
| 20260507144504 | 46 | 142 | 3.0 | 7.0 | 0.00 | 0.02 | 0.02 | 67 | 1013.5 |
| 20260507143603 | 46 | 133 | 3.0 | 8.0 | 0.00 | 0.02 | 0.02 | 69 | 1013.6 |
| 20260507142724 | 45 | 144 | 3.0 | 8.0 | 0.00 | 0.02 | 0.02 | 69 | 1013.6 |
| 20260507141803 | 44 | 146 | 2.0 | 6.0 | 0.00 | 0.02 | 0.02 | 72 | 1013.6 |
| 20260507140903 | 43 | 207 | 1.0 | 4.0 | 0.00 | 0.02 | 0.02 | 72 | 1013.6 |
| 20260507140025 | 42 | 303 | 1.0 | 4.0 | 0.00 | 0.02 | 0.02 | 75 | 1013.6 |
| 20260507135403 | 42 | 333 | 3.0 | 4.0 | 0.00 | 0.02 | 0.02 | 73 | 1013.6 |
| 20260507134503 | 41 | 333 | 6.0 | 10.0 | 0.00 | 0.02 | 0.02 | 78 | 1013.6 |
| 20260507133604 | 40 | 316 | 8.0 | 13.0 | 0.00 | 0.02 | 0.02 | 78 | 1014.0 |
| 20260507132703 | 40 | 311 | 8.0 | 12.0 | 0.00 | 0.02 | 0.02 | 79 | 1014.2 |
| 20260507131803 | 41 | 316 | 6.0 | 11.0 | 0.01 | 0.02 | 0.02 | 80 | 1014.1 |
| 20260507130903 | 41 | 327 | 6.0 | 11.0 | 0.01 | 0.02 | 0.02 | 80 | 1014.0 |
| 20260507130025 | 41 | 335 | 4.0 | 8.0 | 0.02 | 0.02 | 0.02 | 81 | 1014.1 |
| 20260507125403 | 42 | 346 | 3.0 | 9.0 | 0.02 | 0.02 | 0.02 | 81 | 1014.0 |
| 20260507124503 | 42 | 318 | 6.0 | 10.0 | 0.02 | 0.02 | 0.02 | 85 | 1013.9 |
| 20260507123604 | 41 | 331 | 7.0 | 13.0 | 0.02 | 0.02 | 0.02 | 83 | 1014.0 |
| 20260507122705 | 40 | 318 | 7.0 | 13.0 | 0.02 | 0.02 | 0.02 | 84 | 1014.2 |
| 20260507121803 | 40 | 287 | 4.0 | 9.0 | 0.01 | 0.01 | 0.01 | 82 | 1014.3 |
| 20260507120903 | 41 | 222 | 3.0 | 6.0 | 0.01 | 0.01 | 0.01 | 80 | 1014.4 |
| 20260507120004 | 41 | 282 | 3.0 | 7.0 | 0.00 | 0.00 | 0.00 | 75 | 1014.3 |
| 20260507115424 | 42 | 251 | 1.0 | 4.0 | 0.00 | 0.00 | 0.00 | 76 | 1014.2 |
| 20260507114524 | 43 | 316 | 5.0 | 14.0 | 0.00 | 0.00 | 0.00 | 71 | 1014.1 |
| 20260507113603 | 44 | 316 | 3.0 | 14.0 | 0.00 | 0.00 | 0.00 | 64 | 1013.9 |
| 20260507112703 | 45 | 356 | 0.0 | 3.0 | 0.00 | 0.00 | 0.00 | 62 | 1013.7 |
| 20260507111803 | 45 | 183 | 4.0 | 9.0 | 0.00 | 0.00 | 0.00 | 63 | 1013.6 |
| 20260507110903 | 45 | 199 | 4.0 | 12.0 | 0.00 | 0.00 | 0.00 | 63 | 1013.6 |
| 20260507110025 | 46 | 291 | 4.0 | 12.0 | 0.00 | 0.00 | 0.00 | 59 | 1013.5 |
| 20260507105403 | 46 | 309 | 2.0 | 7.0 | 0.00 | 0.00 | 0.00 | 58 | 1013.5 |
| 20260507104504 | 45 | 350 | 2.0 | 9.0 | 0.00 | 0.00 | 0.00 | 62 | 1013.5 |
| 20260507103603 | 44 | 8 | 3.0 | 5.0 | 0.00 | 0.00 | 0.00 | 62 | 1013.5 |
| 20260507102703 | 44 | 283 | 2.0 | 5.0 | 0.00 | 0.00 | 0.00 | 65 | 1013.6 |
| 20260507101803 | 43 | 271 | 2.0 | 10.0 | 0.00 | 0.00 | 0.00 | 67 | 1013.6 |
| 20260507100903 | 44 | 291 | 7.0 | 15.0 | 0.00 | 0.00 | 0.00 | 63 | 1013.6 |
| 20260507100004 | 45 | 290 | 10.0 | 19.0 | 0.00 | 0.00 | 0.00 | 57 | 1013.3 |
| 20260507095403 | 45 | 294 | 10.0 | 18.0 | 0.00 | 0.00 | 0.00 | 54 | 1013.4 |
| 20260507094504 | 45 | 292 | 9.0 | 14.0 | 0.00 | 0.00 | 0.00 | 53 | 1013.4 |
| 20260507093603 | 45 | 275 | 9.0 | 17.0 | 0.00 | 0.00 | 0.00 | 55 | 1013.3 |
| 20260507092703 | 46 | 279 | 7.0 | 16.0 | 0.00 | 0.00 | 0.00 | 55 | 1013.2 |
| 20260507091803 | 47 | 261 | 5.0 | 13.0 | 0.00 | 0.00 | 0.00 | 50 | 1013.1 |
| 20260507090924 | 47 | 270 | 4.0 | 10.0 | 0.00 | 0.00 | 0.00 | 49 | 1013.0 |
| 20260507090024 | 48 | 282 | 8.0 | 16.0 | 0.00 | 0.00 | 0.00 | 46 | 1013.0 |
| 20260507085403 | 49 | 289 | 7.0 | 16.0 | 0.00 | 0.00 | 0.00 | 44 | 1012.9 |
| 20260507084503 | 50 | 272 | 5.0 | 15.0 | 0.00 | 0.00 | 0.00 | 43 | 1012.9 |
| 20260507083603 | 51 | 239 | 4.0 | 10.0 | 0.00 | 0.00 | 0.00 | 44 | 1012.8 |
| 20260507082724 | 51 | 186 | 5.0 | 15.0 | 0.00 | 0.00 | 0.00 | 44 | 1013.0 |
| 20260507081803 | 50 | 188 | 6.0 | 15.0 | 0.00 | 0.00 | 0.00 | 48 | 1012.9 |
| 20260507080903 | 49 | 207 | 4.0 | 12.0 | 0.00 | 0.00 | 0.00 | 50 | 1013.0 |
| 20260507080004 | 49 | 203 | 3.0 | 9.0 | 0.00 | 0.00 | 0.00 | 51 | 1013.0 |
| 20260507075403 | 49 | 198 | 4.0 | 10.0 | 0.00 | 0.00 | 0.00 | 52 | 1013.0 |
| 20260507074503 | 48 | 213 | 4.0 | 12.0 | 0.00 | 0.00 | 0.00 | 54 | 1012.9 |
| 20260507073603 | 48 | 225 | 4.0 | 11.0 | 0.00 | 0.00 | 0.00 | 54 | 1012.9 |
| 20260507072703 | 48 | 164 | 5.0 | 11.0 | 0.00 | 0.00 | 0.00 | 57 | 1012.9 |
| 20260507071803 | 47 | 164 | 6.0 | 12.0 | 0.00 | 0.00 | 0.00 | 62 | 1012.9 |
| 20260507070903 | 46 | 170 | 5.0 | 9.0 | 0.00 | 0.00 | 0.00 | 63 | 1012.9 |
| 20260507070024 | 46 | 168 | 6.0 | 11.0 | 0.00 | 0.00 | 0.00 | 65 | 1012.9 |